SCP
0 0 0 0 0 0 0 0 0 0 0 0 -0 -0 -0 0 0 -0 -0 -0 -0 0 0 0 0 0 0 0 0 0 0 0 0 0 0 0 0 0 0 0 0 0 0
0 0 0 0 0 0 0 0 0 0 0 -0 -0 -0 -0 -0 -0 -0 -0 -0 -0 -0 0 0 0 0 0 0 0 0 0 0 0 0 0 0 0 0 0 0 0 0 0
0 0 0 0 0 0 0 0 0 0 0 -0 -0 -0 -0 -0 -0 -0 -0 -0 -0 -0 0 0 0 0 0 0 0 0 0 0 0 0 0 0 0 0 0 0 0 0 0
0 0 0 0 0 0 0 0 0 0 0 0 -0 -0 -0 -0 -0 -0 -0 -0 -0 -0 0 0 0 0 0 0 0 0 0 0 0 0 0 0 0 0 0 0 0 0 0
0 0 0 0 0 0 0 0 0 0 0 0 0 -0 -0 -0 -0 -0 -0 -0 -0 -0 -0 0 0 0 0 0 0 0 0 0 0 0 0 0 0 0 0 0 0 0 0
0 0 0 0 0 0 0 0 0 0 0 0 0 0 -0 -0 -0 -0 -0 -0 -0 -0 -0 0 0 0 0 0 0 0 0 0 0 0 0 0 0 0 0 0 0 0 0
0 0 0 0 0 0 0 0 0 0 0 0 0 0 0 -0 -0 -0 -0 -0 -0 -0 -0 -0 0 0 0 0 0 0 0 0 0 0 0 0 0 0 0 0 0 0 0
0 0 0 0 0 0 0 0 0 0 0 0 0 0 0 0 0 0 -0 -0 -0 -0 -0 -0 -0 0 0 0 0 0 0 0 0 0 0 0 0 0 0 0 0 0 0
0 0 0 0 0 0 0 0 0 0 0 0 0 0 0 0 0 0 0 0 0 0 0 0 -0 0 0 0 0 0 0 0 0 0 0 0 0 0 0 0 0 0 0
0 0 0 0 0 0 0 0 0 0 0 0 0 0 0 0 0 0 0 0 0 0 0 0 0 0 0 0 0 0 0 0 0 -0 0 0 0 0 0 0 0 0 0
0 0 0 0 0 0 0 0 0 0 0 0 0 0 0 0 0 0 0 0 0 0 0 0 0 0 0 0 0 0 0 -0 -0 -0 0 0 0 0 0 0 0 0 0
0 0 0 0 0 0 0 0 0 0 0 0 0 0 0 0 0 0 0 0 0 0 0 0 0 0 0 0 0 0 0 0 -0 0 0 0 0 0 0 0 0 0 0
0 0 0 0 0 0 0 0 0 0 0 0 0 0 0 0 0 0 0 0 0 0 0 0 0 0 0 0 0 0 0 0 0 0 0 0 0 -0 -0 0 0 0 0
0 0 0 0 0 0 0 0 0 0 0 0 0 0 0 0 0 0 0 0 0 0 0 0 0 0 0 0 0 0 0 0 0 0 0 0 0 0 -0 -0 -0 0 0
0 0 0 0 0 0 0 0 0 0 0 0 0 0 0 0 0 0 0 0 0 0 0 0 0 0 0 0 0 0 0 0 0 0 0 0 0 0 0 -0 -0 -0 -0
0 0 0 0 0 0 0 0 0 0 0 0 0 0 0 0 0 0 0 0 0 0 0 0 0 0 0 0 0 0 0 0 0 0 0 0 0 0 0 0 0 -0 -0
0 0 0 0 0 0 0 0 0 0 0 0 0 0 0 0 0 0 0 0 0 1 1 1 1 0 0 0 0 0 0 0 0 0 0 0 0 0 0 0 0 0 0
0 0 0 0 0 0 0 0 0 0 0 0 0 0 0 0 0 0 0 0 0 1 1 1 1 1 0 0 0 0 0 0 0 0 0 0 0 0 0 0 0 0 0
0 0 0 0 0 0 0 0 0 0 0 0 0 0 0 0 0 0 0 0 0 1 1 1 1 1 1 0 0 0 0 0 0 0 0 0 0 0 0 0 0 0 0
0 0 0 0 0 0 0 0 0 0 0 0 0 0 0 0 0 0 0 0 0 1 1 1 1 1 1 1 0 0 0 0 0 0 0 0 0 0 0 0 0 0 0
0 0 0 0 0 0 0 0 0 0 0 0 0 0 0 0 0 0 0 0 0 0 1 1 1 1 1 1 1 0 0 0 0 0 0 0 0 0 0 0 0 0 0
0 0 0 0 0 0 0 0 0 0 0 0 0 0 0 0 0 0 0 0 0 0 0 1 1 1 1 1 1 1 0 0 0 0 0 0 0 0 0 0 0 0 0
0 0 0 0 0 0 0 0 0 0 0 0 0 0 0 0 0 0 0 0 0 0 0 1 1 1 1 1 1 1 1 0 0 0 0 0 0 0 0 0 0 0 0
0 0 0 0 0 0 0 0 0 0 0 0 0 0 0 0 0 0 0 0 0 0 0 0 1 1 1 1 1 1 1 1 1 0 0 0 0 0 0 0 0 0 0
0 0 0 0 0 0 0 0 0 0 0 0 0 0 0 0 0 0 0 0 0 0 0 0 0 1 1 1 1 1 1 1 1 1 0 0 0 0 0 0 0 0 0
0 0 0 0 0 0 0 0 0 0 0 0 0 0 0 0 0 0 0 0 0 0 0 0 0 0 1 1 1 1 1 1 1 1 0 0 0 0 0 1 1 1 1
Wind_Speed
6 8 10 7 7 6 6 6 6 6 6 6 6 6 5 5 4 4 3 3 3 2 1 1 2 2 2 3 3 3 3 4 4 4 4 5 5 5 5 4 3 6 8
6 8 9 7 7 6 6 6 6 6 6 6 5 5 5 4 4 4 3 3 3 2 2 2 1 1 2 2 2 2 3 3 3 3 2 4 5 4 4 3 3 6 7
5 7 9 6 5 6 6 6 6 6 6 6 6 5 5 5 5 4 4 4 4 3 3 2 2 2 1 1 1 2 2 2 2 2 3 2 5 5 3 4 4 5 6
4 4 4 5 4 4 5 6 6 7 7 7 6 6 6 6 6 5 5 5 4 4 3 3 2 2 2 1 1 1 1 1 2 3 3 2 2 6 3 4 4 4 5
3 2 4 2 1 2 4 5 6 6 7 7 7 7 7 7 7 6 6 6 5 5 4 4 3 3 2 2 1 1 1 2 3 5 1 1 2 5 3 3 3 4 4
4 3 6 6 5 4 4 5 6 6 7 7 8 8 8 8 8 7 7 7 6 6 5 5 4 4 3 3 2 1 1 3 6 2 1 0 2 5 2 2 3 4 4
6 6 7 10 9 8 7 7 7 7 7 8 8 8 9 9 9 8 8 8 7 7 6 5 5 5 4 3 3 2 2 3 4 2 2 1 3 3 2 2 3 3 4
8 8 8 10 11 11 10 10 9 9 8 8 8 9 9 10 10 10 9 9 8 8 7 6 6 5 5 4 3 3 3 5 5 3 2 2 4 2 2 2 3 3 4
7 7 7 7 8 9 11 10 10 9 9 8 8 9 9 10 10 11 11 10 9 9 8 8 7 6 6 5 4 4 4 4 5 3 3 2 4 2 2 2 2 3 4
7 7 7 6 6 6 7 9 10 10 8 8 8 8 9 10 11 11 12 11 11 10 10 9 8 7 6 6 5 5 4 7 7 4 3 4 4 3 3 2 2 3 3
7 6 5 5 5 5 5 5 7 7 6 7 6 8 8 7 8 8 10 8 11 11 11 10 9 8 8 8 7 5 7 7 5 4 3 6 4 4 4 3 3 3 3
7 7 6 6 6 5 5 4 4 4 4 4 4 5 4 5 6 8 5 8 10 11 11 11 10 10 11 8 10 9 7 8 5 5 3 6 5 5 4 4 4 4 4
7 8 7 7 7 6 4 4 3 3 3 3 3 4 4 4 4 5 4 5 8 10 9 9 10 9 9 6 5 7 7 6 4 4 5 7 5 6 6 5 5 5 5
8 9 9 9 8 8 7 5 5 4 3 3 4 4 3 3 4 4 4 5 5 4 6 6 6 7 9 8 9 9 8 6 5 4 5 8 6 7 7 7 7 6 6
9 9 10 10 9 8 7 6 6 5 5 5 4 4 4 4 4 4 4 4 5 4 5 6 6 7 7 8 7 8 8 8 7 6 4 8 7 7 8 8 8 8 7
9 10 10 10 9 9 8 7 6 6 5 6 5 5 6 5 5 4 4 4 4 4 5 5 6 6 5 5 7 8 8 8 8 8 6 8 9 8 8 9 9 9 8
10 10 10 10 10 10 9 8 6 6 6 6 5 6 6 6 6 5 5 5 5 4 5 4 5 5 5 6 7 8 7 8 8 9 8 6 8 11 9 9 9 10 9
10 10 10 8 10 10 9 8 6 6 6 5 5 5 7 6 6 6 6 5 5 4 4 4 4 5 5 6 6 6 6 6 8 8 8 8 7 7 11 11 9 9 10
9 10 10 10 10 10 9 7 7 6 5 5 5 4 6 7 7 6 5 5 6 5 5 5 5 5 5 6 6 5 6 6 7 8 10 10 9 7 7 11 11 9 10
8 9 9 9 9 9 7 6 5 5 5 4 4 4 6 6 7 7 5 6 6 5 5 5 6 6 5 5 6 5 5 5 6 7 8 8 8 10 9 9 10 10 11
8 9 9 9 9 8 7 7 6 6 6 5 5 6 6 6 6 6 6 6 5 5 6 6 6 7 6 5 4 4 5 6 6 6 7 8 9 8 9 9 9 7 9
8 9 10 9 9 8 7 7 6 6 5 5 5 5 6 6 6 6 6 5 5 5 7 7 7 5 5 6 5 4 4 5 6 6 6 8 10 9 10 11 11 9 7
8 8 8 8 8 8 8 6 6 5 4 4 6 5 7 7 6 6 6 6 6 6 6 7 7 8 6 6 6 5 5 6 4 5 8 8 9 7 9 10 12 12 11
8 7 8 8 8 8 7 7 8 6 6 6 6 6 7 6 6 6 6 6 6 5 6 7 7 7 7 6 6 7 7 4 4 4 5 7 8 9 9 9 10 11 11
6 6 6 7 7 7 7 6 6 6 6 5 6 7 7 6 6 6 6 6 5 5 6 7 7 8 7 8 6 6 7 6 7 5 5 5 6 7 8 9 8 9 10
5 5 5 6 6 6 6 6 7 8 8 8 8 8 7 5 5 7 7 6 5 5 6 6 7 8 8 9 8 7 7 7 8 8 7 5 5 6 7 6 7 7 8
Wind_Direction
155 152 140 167 168 169 168 168 168 166 167 170 167 165 166 167 165 166 171 170 164 167 178 150 117 105 100 98 98 98 94 91 88 89 90 97 101 106 104 108 150 113 100
148 149 141 169 172 176 178 180 184 186 186 185 184 184 185 188 190 191 197 201 199 199 210 208 169 147 126 117 118 120 106 91 88 84 97 134 118 108 109 100 20 86 108
145 150 154 169 181 186 192 196 200 203 202 201 202 203 203 204 205 208 215 223 224 221 223 223 210 191 164 150 133 125 113 98 88 84 249 174 124 116 116 119 103 108 114
130 152 148 140 186 201 209 214 216 216 215 214 216 217 217 217 216 219 224 231 235 233 235 231 225 213 201 187 170 152 132 135 120 242 238 83 112 108 118 120 120 121 121
101 90 75 59 223 243 246 242 239 236 232 229 227 225 226 228 226 228 231 234 238 239 240 238 237 231 222 214 210 211 186 170 180 248 20 47 71 105 116 122 128 126 134
66 48 52 23 3 342 313 289 270 262 253 245 239 236 234 235 234 233 234 236 239 241 241 241 245 244 235 223 220 223 199 183 218 200 155 195 108 113 127 131 147 151 154
44 33 35 27 10 358 343 326 307 287 272 261 254 249 245 242 239 237 237 238 240 241 241 241 247 249 239 227 226 226 212 213 242 188 194 181 93 110 133 132 142 151 151
39 31 28 28 16 2 348 335 323 306 289 275 267 262 257 251 246 241 238 238 238 238 240 240 243 246 243 234 230 231 224 247 213 202 188 164 95 143 153 143 145 144 146
44 34 22 13 6 359 350 336 326 319 308 298 285 275 266 259 254 248 242 237 235 235 238 239 239 240 241 237 232 231 227 253 259 215 202 151 123 179 167 160 156 157 157
43 32 18 7 360 349 336 328 325 320 315 309 299 290 280 267 257 250 245 234 233 233 234 234 234 235 235 234 230 227 225 233 234 216 211 129 139 192 172 163 159 159 157
39 25 13 358 355 337 313 313 310 305 304 299 283 289 288 272 262 247 242 236 235 236 235 231 229 230 230 218 221 221 227 235 209 231 206 114 169 200 185 176 172 166 160
17 7 360 346 341 327 317 312 301 299 302 293 278 273 275 273 271 271 271 247 244 240 238 233 230 227 230 216 191 202 227 225 214 215 159 135 195 206 196 188 182 178 167
2 360 353 340 334 326 316 306 306 298 293 281 272 259 256 259 259 262 265 247 239 232 232 219 218 225 224 221 222 213 225 235 221 212 158 155 201 208 203 198 193 187 178
2 356 349 341 333 330 326 318 300 298 297 287 274 261 248 245 249 252 250 255 251 240 235 233 234 227 233 222 218 227 214 223 231 220 153 158 205 213 209 203 200 196 191
359 353 352 341 337 333 327 311 304 305 302 293 283 275 261 255 251 249 248 243 248 248 241 236 236 233 236 241 235 234 231 220 226 223 174 167 203 217 212 205 202 201 200
356 352 351 343 341 334 325 317 313 308 298 291 285 280 277 265 258 255 254 248 244 241 240 240 241 235 234 238 241 238 240 230 227 223 221 182 193 209 213 208 204 203 204
352 349 353 340 342 337 333 328 316 307 304 299 293 285 275 270 269 263 258 246 237 230 234 236 235 231 228 229 233 239 238 238 232 224 220 217 195 193 203 205 206 205 206
353 349 351 347 344 342 337 327 320 314 312 301 297 290 285 280 276 273 265 257 247 234 228 226 223 221 221 225 229 227 229 224 234 235 227 215 216 199 189 195 199 205 208
352 346 350 354 347 346 340 328 323 318 316 308 304 303 302 296 286 274 269 267 256 243 231 229 219 220 223 222 228 228 233 229 230 230 231 225 212 209 203 174 191 202 209
350 345 350 353 352 348 343 335 336 331 329 329 323 324 316 302 294 286 271 261 257 250 241 230 226 220 226 222 228 225 228 229 234 232 242 240 228 211 213 189 188 196 204
354 349 352 353 358 353 349 344 344 343 336 341 339 340 323 313 304 289 281 277 265 254 249 242 231 225 223 217 218 221 223 230 234 236 235 239 234 224 217 208 205 196 191
352 346 352 359 357 356 353 342 336 334 329 340 336 337 337 331 319 304 291 279 264 260 251 245 234 236 228 210 213 215 217 215 223 229 233 235 237 220 221 217 209 202 208
350 351 350 355 351 356 352 347 340 344 336 347 348 345 342 336 326 315 305 290 277 264 256 248 240 232 233 225 222 220 222 221 194 200 223 228 233 231 222 222 218 204 205
350 346 346 353 354 358 350 356 352 350 351 347 340 339 337 342 339 332 316 300 286 273 265 256 242 240 237 233 226 230 240 248 212 196 203 223 227 226 229 225 224 216 205
339 340 341 348 352 357 354 354 344 353 347 344 343 344 342 347 345 344 333 320 304 287 275 267 259 243 237 236 231 225 227 233 237 231 209 197 218 223 225 232 227 221 213
333 334 337 343 351 353 348 351 356 352 346 347 348 347 343 346 345 351 340 329 315 304 294 281 266 254 245 240 238 232 226 220 218 224 227 205 204 210 216 226 236 227 217